Flag for Belgium Weather past 2 weeks in Leuven, Belgium

Now
70 °F

Passing clouds.


Feels Like: 70 °F
Forecast: 62 / 77 °F
Wind: 8 mph from Southeast

Location: Brussels National Airport

Current Time: Sep 18, 2014 at 2:24:26 PM

Latest Report: Sep 18, 2014 at 1:50 PM


Visibility: N/A

Pressure: 29.83 "Hg

Humidity: 73%

Dew point: 61 °F

Location of LeuvenLocation

Historic Weather in Leuven — Graph

°F

Leuven temperature yesterday

Maximum temperature yesterday: 77 °F (at 2:50 PM)
Minimum temperature yesterday: 54 °F (at 5:50 AM)
Average temperature yesterday: 65 °F

Past Weeks' High & Low Weather Summary

 TemperatureHumidityPressure
High77 °F (Sep 17, 2:50 PM)100% (Sep 7, 5:50 AM)30.27 "Hg (Sep 7, 5:50 AM)
Low48 °F (Sep 12, 4:50 AM)47% (Sep 17, 3:50 PM)29.80 "Hg (Sep 18, 4:20 AM)
Average61 °F80%30.06 "Hg
* Reported Sep 3 12:20 PM — Sep 18 12:50 PM, Leuven, Weather by CustomWeather, © 2014

Note: Actual official high and low records may vary slightly from our data, if they occured in-between our weather recording intervals... More about our weather records

Advertising

Leuven weather history for previous 24 hours

 ConditionsComfort  
Time TempWeatherWind HumidityBarometerVisibility
12:50 PM
Sep 18
72 °FPassing clouds.7 mph73%29.83 "HgN/A
12:20 PM70 °FSunny.7 mph73%29.83 "Hg10 mi
11:50 AM68 °FPassing clouds.7 mph78%29.83 "HgN/A
11:20 AM68 °FPassing clouds.5 mph78%29.83 "HgN/A
10:50 AM68 °FSunny.2 mph78%29.83 "Hg10 mi
10:20 AM70 °FSunny.2 mph73%29.83 "Hg10 mi
9:50 AM68 °FSunny.3 mph78%29.80 "Hg10 mi
9:20 AM63 °FSunny.3 mph88%29.83 "Hg10 mi
8:50 AM61 °FSunny.2 mph88%29.80 "Hg10 mi
8:20 AM61 °FClear.1 mph88%29.80 "Hg10 mi
7:50 AM61 °FClear.2 mph88%29.80 "Hg10 mi
7:20 AM61 °FClear.5 mph88%29.80 "Hg5 mi
6:50 AM61 °FClear.3 mph88%29.80 "Hg5 mi
6:20 AM61 °FClear.5 mph88%29.80 "Hg6 mi
5:50 AM61 °FClear.3 mph88%29.80 "Hg5 mi
5:20 AM61 °FClear.3 mph88%29.80 "Hg5 mi
4:50 AM59 °FClear.2 mph94%29.80 "Hg5 mi
4:20 AM59 °FClear.2 mph94%29.80 "Hg6 mi
3:50 AM59 °FClear.2 mph94%29.83 "Hg10 mi
3:20 AM59 °FPassing clouds.3 mph88%29.83 "HgN/A
2:50 AM59 °FClear.2 mph88%29.83 "Hg10 mi
2:20 AM59 °FClear.2 mph94%29.83 "Hg10 mi
1:50 AM61 °FClear.2 mph88%29.83 "Hg10 mi
1:20 AM61 °FClear.1 mph88%29.83 "Hg10 mi
12:50 AM61 °FClear.2 mph88%29.83 "Hg10 mi
12:20 AM64 °FClear.3 mph78%29.83 "Hg10 mi
11:50 PM
Sep 17
64 °FClear.5 mph78%29.83 "Hg10 mi
11:20 PM64 °FClear.5 mph78%29.83 "Hg10 mi
10:50 PM64 °FClear.3 mph78%29.83 "Hg10 mi
10:20 PM66 °FClear.3 mph73%29.83 "Hg10 mi
9:50 PM66 °FClear.3 mph78%29.83 "Hg10 mi
9:20 PM68 °FClear.5 mph73%29.83 "Hg10 mi
8:50 PM66 °FSunny.3 mph78%29.83 "Hg10 mi
8:20 PM68 °FSunny.5 mph73%29.83 "Hg10 mi
7:50 PM70 °FSunny.3 mph69%29.83 "Hg10 mi
7:20 PM73 °FSunny.3 mph57%29.83 "Hg10 mi
6:50 PM73 °FSunny.3 mph57%29.83 "Hg10 mi
6:20 PM75 °FSunny.5 mph54%29.83 "Hg10 mi
5:50 PM75 °FSunny.6 mph54%29.83 "Hg10 mi
5:20 PM77 °FSunny.7 mph47%29.83 "Hg10 mi
4:50 PM77 °FPassing clouds.6 mph47%29.83 "HgN/A
4:20 PM77 °FPassing clouds.6 mph47%29.83 "HgN/A
3:50 PM77 °FPassing clouds.6 mph47%29.83 "HgN/A
3:20 PM77 °FPassing clouds.7 mph51%29.86 "HgN/A
2:50 PM77 °FPassing clouds.5 mph51%29.86 "HgN/A
2:20 PM75 °FPassing clouds.7 mph54%29.86 "HgN/A
Weather by CustomWeather, © 2014

See weather overviewHow to use our weather pages